Theta_e
312 314 315 315 314 315 314 314 314 315 315 317 317 317 319 322 325 329 330 330 335 337 339 340 341 343 343 343 344 344 345 345 345 343 342 341 341 340 338 338 337 336 336
312 313 314 315 314 316 315 315 314 315 315 315 316 317 318 319 323 326 328 328 332 333 334 337 338 340 342 343 343 343 343 344 344 344 343 341 340 339 338 338 338 337 336
312 312 312 313 313 315 315 314 314 316 317 318 315 317 319 319 320 323 325 327 328 325 328 333 335 336 337 338 339 338 336 338 341 342 341 340 339 338 337 338 337 337 336
310 311 311 311 312 313 311 311 311 312 313 312 310 312 313 317 321 323 321 320 319 320 321 324 327 330 333 334 334 335 333 333 334 334 334 333 331 332 333 331 329 332 337
307 308 309 307 310 308 305 305 307 308 309 308 307 309 311 315 319 322 319 318 318 318 318 318 321 322 323 325 328 332 332 331 331 332 332 332 333 333 332 333 334 331 330
304 303 304 304 304 302 301 300 300 304 307 305 308 308 309 316 318 315 314 316 314 312 313 314 316 316 317 317 319 323 326 328 329 328 329 329 329 329 330 331 332 334 333
302 300 300 300 302 300 299 299 299 299 302 300 303 304 310 312 315 312 312 311 309 308 307 309 309 308 308 310 311 314 318 322 323 323 324 325 326 327 328 329 330 329 329
300 299 297 298 298 299 296 295 295 296 297 298 299 300 299 303 304 312 309 306 304 302 299 306 302 300 301 300 301 306 310 313 316 317 318 320 322 325 325 326 326 326 326
298 297 295 295 294 295 293 292 293 293 293 295 295 298 294 295 297 304 307 296 294 294 292 303 300 298 297 296 298 299 305 307 311 314 314 317 320 320 322 323 324 323 322
295 295 294 293 293 293 291 291 293 291 292 291 293 295 293 294 293 293 298 294 293 293 290 298 298 294 293 294 297 300 302 304 307 311 313 313 313 314 315 316 319 321 321
293 293 293 291 291 291 291 290 290 289 290 289 289 290 290 291 292 290 288 289 291 292 291 290 296 292 292 293 294 297 300 302 305 307 309 309 309 309 310 311 313 314 315
292 291 293 290 290 290 290 290 290 289 289 288 288 288 289 288 288 287 286 286 287 289 291 292 293 292 292 292 297 298 299 300 302 304 306 307 306 305 307 308 308 308 308
290 290 290 289 288 289 290 290 290 289 288 288 287 287 288 289 290 289 288 286 285 287 288 290 291 291 293 291 293 297 297 298 300 302 304 304 303 302 303 304 304 305 305
290 290 289 289 289 290 289 289 289 289 288 288 287 287 288 288 288 289 288 285 283 284 285 285 290 289 290 291 294 296 291 297 298 299 300 300 299 299 300 301 301 302 302
292 289 289 288 288 288 288 287 287 287 287 287 287 287 287 287 287 287 287 287 284 281 281 285 286 288 289 289 292 290 290 296 296 296 297 297 297 298 299 299 300 300 300
291 289 288 288 288 288 288 287 286 287 287 286 287 286 286 286 286 286 286 286 286 284 281 285 285 286 288 290 292 290 290 294 294 295 296 296 296 296 297 298 298 298 298
290 289 288 288 287 287 287 286 285 286 286 285 286 286 287 287 285 285 285 286 285 285 282 284 286 286 286 286 287 288 289 288 288 294 294 296 295 295 296 297 296 296 297
289 289 288 287 286 286 285 284 284 285 284 284 285 285 286 288 285 284 284 284 284 284 283 282 284 284 284 286 285 285 288 290 287 291 294 294 294 295 296 296 295 295 295
289 288 287 286 286 286 285 284 284 284 284 283 284 285 285 284 283 283 282 282 283 286 284 283 283 284 284 284 284 285 285 286 288 291 291 292 293 294 294 294 293 294 293
289 288 287 287 286 285 285 284 284 283 283 283 284 285 285 285 284 283 282 282 283 282 282 281 281 281 282 284 283 282 282 284 284 287 288 290 291 291 292 292 292 291 291
290 289 288 286 286 286 286 285 285 284 283 282 284 285 286 287 289 287 285 283 283 282 281 281 280 280 280 280 280 281 282 282 283 284 283 284 284 285 285 288 289 290 291
289 288 288 288 286 287 291 293 289 284 284 283 283 284 285 289 290 292 291 291 288 281 281 279 281 280 280 280 280 280 281 281 279 283 281 283 284 283 284 284 289 290 290
289 288 288 287 286 286 293 295 295 286 284 282 282 283 284 286 288 284 288 290 289 290 290 284 282 281 282 282 282 282 281 280 281 284 283 281 281 280 282 285 288 289 290
288 288 287 286 286 286 292 295 295 287 285 283 284 283 282 282 283 284 282 281 282 282 284 285 283 283 283 284 285 286 284 284 285 284 282 278 280 279 280 281 287 288 288
287 286 286 286 285 286 293 294 294 286 285 284 284 283 282 282 286 290 284 282 281 283 288 290 290 290 291 291 290 286 281 278 278 278 279 278 277 277 280 280 282 286 287
288 287 286 285 288 286 291 294 293 285 284 284 284 282 287 285 288 290 285 282 282 283 282 284 284 285 287 286 289 284 281 276 276 275 279 276 278 279 276 277 278 280 280
Wind_Speed
4 4 4 5 5 5 4 5 5 6 5 6 5 5 6 6 6 3 2 8 11 16 16 17 18 22 23 23 23 23 22 22 22 21 20 18 17 16 17 16 15 14 14
4 4 5 6 6 6 4 4 4 4 5 5 6 6 6 6 5 5 3 4 11 15 14 14 13 15 18 21 25 26 27 25 21 21 20 19 17 17 17 16 16 16 16
6 5 4 4 5 6 7 7 7 6 6 6 6 6 6 7 5 6 5 4 6 16 17 15 16 16 10 9 10 9 35 14 22 23 22 16 13 11 9 14 15 16 16
7 5 4 4 5 6 6 5 5 4 4 5 5 6 5 5 4 6 7 6 6 6 9 18 19 18 18 16 14 14 17 20 21 30 15 10 4 1 3 2 3 11 16
7 5 4 5 6 5 5 5 4 4 3 5 5 4 4 4 4 6 7 7 7 5 4 11 15 18 19 22 24 23 19 16 16 17 19 18 14 5 4 8 10 10 9
6 5 4 5 5 4 4 5 4 4 2 5 5 5 4 3 5 5 5 5 5 6 5 6 6 9 19 22 23 23 23 23 15 14 11 11 12 12 11 10 7 11 15
5 5 4 5 5 5 5 6 4 4 3 8 4 4 3 6 6 4 4 4 5 5 5 5 5 5 6 18 22 23 22 20 19 17 14 11 9 11 11 7 8 5 4
5 4 5 4 5 4 6 5 4 3 3 6 3 2 4 4 6 4 4 5 6 4 5 5 6 6 5 5 13 19 18 17 15 14 13 13 13 12 7 8 7 9 10
4 4 5 4 5 4 3 3 4 6 3 3 6 3 3 2 4 3 4 5 5 4 4 4 5 5 5 5 8 11 17 17 16 15 13 13 14 16 14 12 11 8 9
3 4 5 5 4 2 3 3 4 3 4 4 3 4 2 2 1 4 3 2 4 5 5 2 4 5 5 4 10 14 15 15 15 16 16 15 16 17 17 15 13 14 11
3 3 3 3 2 2 2 3 4 5 2 2 2 2 3 2 3 1 4 4 4 4 4 2 4 4 5 4 4 8 13 14 14 15 12 11 13 13 15 13 12 14 17
2 1 2 1 1 1 1 1 2 3 3 3 2 3 2 1 1 2 3 3 3 4 5 3 4 4 4 3 5 9 12 13 13 14 13 13 13 13 14 13 15 15 15
2 3 2 1 1 1 1 2 2 1 1 2 1 1 1 0 0 0 1 3 3 3 3 4 4 4 4 4 5 9 11 14 13 14 13 12 12 13 15 12 13 13 13
3 3 3 3 3 1 1 1 1 0 2 1 1 0 0 1 0 1 1 0 3 3 2 1 1 4 3 4 7 11 6 12 15 15 13 11 12 13 14 13 11 14 14
4 6 5 4 4 4 3 2 1 2 1 1 2 2 1 1 0 0 1 2 2 3 3 3 1 2 3 4 7 5 5 12 15 14 13 14 14 16 15 14 12 15 15
6 6 6 5 5 5 5 4 3 3 3 2 3 3 2 2 2 1 2 2 2 3 4 2 2 4 5 6 6 5 6 10 12 13 14 13 12 17 15 11 12 15 15
7 7 7 7 7 6 6 5 5 5 5 5 4 5 6 4 3 3 3 3 3 3 5 4 2 2 3 5 5 4 5 5 4 10 16 13 17 17 14 12 13 16 15
7 8 7 7 7 7 7 7 6 5 6 6 6 5 6 4 5 5 3 5 4 4 3 10 3 2 3 4 5 5 6 4 2 8 10 14 21 16 13 13 18 18 16
8 8 8 9 8 7 7 7 6 6 6 7 6 6 6 6 5 4 4 4 3 3 3 3 6 2 3 2 4 3 4 4 3 8 13 17 13 14 14 18 21 18 18
10 8 9 9 7 7 7 7 7 7 7 7 6 6 6 7 7 6 5 6 4 3 3 3 3 3 2 3 3 3 4 2 4 6 11 10 12 15 19 18 17 17 18
10 10 10 8 8 8 7 8 8 7 7 6 6 6 6 7 11 9 4 5 4 4 3 3 4 3 4 2 3 3 3 3 5 4 3 3 4 6 6 12 13 16 17
10 9 11 11 10 9 15 18 12 7 7 7 6 6 6 9 10 15 15 15 9 5 6 3 6 6 5 3 3 3 3 5 6 3 1 8 3 6 6 5 14 19 21
9 11 11 10 11 11 17 19 18 7 7 6 6 6 5 5 9 6 10 15 13 16 14 6 6 5 6 5 4 5 5 4 6 7 4 9 2 6 5 7 17 20 20
9 10 10 10 11 10 19 19 17 7 7 6 7 6 6 6 7 6 6 7 7 7 7 6 7 9 7 8 7 8 8 7 6 5 3 7 4 7 4 5 20 21 19
6 7 7 10 10 11 17 18 16 6 7 7 6 8 7 7 13 16 7 7 7 7 10 17 19 20 20 18 14 5 5 3 6 3 3 3 2 5 8 8 7 14 15
8 6 8 8 14 12 15 18 15 4 5 4 9 9 18 12 17 17 9 7 9 8 5 7 8 10 12 8 15 7 4 4 3 3 3 2 4 4 5 3 1 5 7
Wind_Direction
357 352 349 347 347 347 358 360 1 3 359 352 347 359 352 347 340 335 336 333 337 340 341 335 294 278 270 264 256 249 242 231 224 219 219 217 216 220 225 227 229 233 236
358 11 5 7 357 358 347 5 7 355 345 351 359 353 327 324 323 334 335 343 1 31 12 357 332 312 294 281 297 269 253 238 230 227 223 221 221 224 227 230 232 232 232
12 40 20 3 358 348 355 5 9 8 8 359 355 342 334 321 317 326 9 38 45 44 34 23 21 21 14 356 19 353 41 13 257 232 214 217 230 243 252 244 244 242 240
18 27 17 5 359 4 16 7 3 356 5 1 334 320 317 315 340 58 66 60 50 36 16 25 24 29 21 18 23 35 45 55 47 25 16 75 11 295 235 234 262 338 248
9 18 12 19 8 23 16 -0 352 7 2 332 312 313 326 8 75 71 66 63 59 49 42 29 15 31 31 29 29 29 44 35 52 55 23 13 6 327 264 265 228 216 255
20 28 24 22 21 27 13 3 1 335 347 318 318 353 357 41 64 71 67 56 44 36 33 31 24 31 38 32 25 24 20 36 27 47 37 17 352 352 348 356 276 216 228
30 35 33 24 17 37 19 12 328 347 330 354 352 7 29 58 53 53 75 65 49 46 47 48 44 33 30 36 26 19 15 25 18 14 23 7 359 349 340 358 10 36 47
33 43 39 31 32 34 21 7 9 348 345 14 26 323 5 332 15 44 50 58 40 30 30 53 71 66 45 37 35 24 18 14 11 6 359 349 338 346 324 17 14 9 9
51 48 46 48 40 47 25 7 13 34 10 343 38 60 20 359 333 341 56 54 43 33 26 74 68 67 72 61 41 26 20 12 9 5 1 353 8 3 11 4 357 2 16
83 55 52 50 52 44 36 -0 29 35 45 25 340 22 56 99 322 322 327 25 17 15 10 341 95 86 84 70 51 34 19 14 11 0 0 6 3 0 353 343 341 351 7
129 80 73 60 59 50 32 48 37 41 42 80 53 345 11 9 41 354 285 316 349 328 326 309 117 88 75 89 79 29 24 8 4 359 352 355 10 357 347 342 353 348 350
175 107 107 98 83 53 34 46 72 69 63 75 68 61 87 74 359 10 314 320 295 301 323 19 92 58 53 44 51 39 18 6 353 352 347 355 2 355 346 1 357 350 343
211 223 178 199 226 242 21 35 44 81 75 90 83 73 77 77 156 277 282 303 314 306 328 28 63 47 35 21 356 24 13 1 354 349 346 353 355 349 347 351 350 343 341
218 201 202 215 233 246 317 22 22 315 112 107 101 103 315 304 121 137 216 296 315 304 311 165 140 58 35 1 356 19 351 352 349 346 341 347 348 347 343 338 341 340 341
213 202 204 212 228 230 226 221 243 267 235 240 251 239 218 271 150 315 197 183 185 303 294 293 310 24 6 357 340 351 345 336 342 339 343 342 343 346 337 336 332 333 334
223 204 208 220 231 231 223 212 226 240 216 236 220 220 233 236 259 246 219 219 205 213 259 262 300 337 347 332 318 336 317 334 330 338 340 331 347 335 328 319 323 327 328
217 214 210 210 216 220 224 218 225 233 233 240 247 223 234 218 229 233 226 222 225 202 255 281 265 297 306 313 309 304 295 290 303 328 331 339 333 328 319 328 332 327 324
221 216 212 216 217 219 216 213 219 224 215 222 236 234 231 226 233 229 230 238 226 230 219 278 270 268 263 289 292 301 302 297 297 313 334 330 326 326 325 326 331 326 326
219 215 208 211 213 216 219 222 217 224 228 226 227 228 231 223 238 240 237 238 247 268 255 256 289 229 255 283 307 304 303 300 320 352 326 318 317 320 335 325 323 322 325
219 214 217 219 213 214 220 218 216 221 228 229 229 231 220 215 219 223 228 230 231 244 257 263 274 283 262 272 265 299 309 303 310 306 308 307 321 323 319 317 312 316 313
223 218 215 213 209 211 218 215 216 218 223 237 244 244 236 227 231 220 206 226 236 251 256 260 276 277 270 269 263 266 281 283 284 259 272 292 299 303 291 301 295 299 305
219 211 216 214 211 220 222 220 214 218 216 218 230 238 242 250 247 247 251 257 226 205 240 236 261 259 267 243 229 239 259 299 309 249 351 296 280 282 277 276 288 304 308
221 222 225 213 220 220 223 225 228 210 212 223 232 233 240 230 230 226 261 262 263 268 262 253 260 263 263 244 245 268 259 253 272 285 273 290 270 274 265 278 296 300 301
218 223 221 217 221 228 225 227 228 214 209 221 230 237 235 235 237 230 234 238 237 237 246 257 253 262 248 256 244 267 272 271 271 271 244 283 299 286 284 275 287 295 301
231 216 210 212 215 236 229 224 225 206 215 226 239 239 231 228 236 246 235 232 244 241 245 257 270 274 278 286 292 296 285 261 282 266 235 262 280 295 289 277 267 283 304
236 221 225 213 218 229 222 220 218 175 215 242 248 241 252 239 243 247 241 224 246 248 230 254 265 272 276 276 284 279 253 222 252 293 228 207 296 318 300 235 241 295 272